| time (UTC) | temp F | wind direction | speed MPH | gust MPH | rain 1hr in | rain 24hr in | rain mn in | humidity % | barometer mb |
| 20260903134947 | 70 | 293 | 2.0 | 5.0 | 0.00 | 0.91 | 0.40 | 100 | 1016.1 |
| 20260903133520 | 70 | 315 | 5.0 | 11.0 | 0.00 | 0.91 | 0.40 | 100 | 1016.7 |
| 20260903132520 | 70 | 248 | 2.0 | 6.0 | 0.00 | 0.91 | 0.40 | 100 | 1016.4 |
| 20260903131520 | 70 | 248 | 3.0 | 6.0 | 0.00 | 0.91 | 0.40 | 100 | 1015.5 |
| 20260903130520 | 70 | 248 | 1.0 | 5.0 | 0.00 | 0.91 | 0.40 | 100 | 1015.4 |
| 20260903125520 | 70 | 248 | 3.0 | 8.0 | 0.00 | 0.91 | 0.40 | 100 | 1015.5 |
| 20260903124520 | 70 | 180 | 2.0 | 6.0 | 0.00 | 0.91 | 0.40 | 100 | 1015.5 |
| 20260903123520 | 69 | 180 | 1.0 | 4.0 | 0.00 | 0.91 | 0.40 | 100 | 1015.6 |
| 20260903122731 | 70 | 180 | 1.0 | 5.0 | 0.00 | 0.91 | 0.40 | 100 | 1015.7 |
| 20260903121520 | 69 | 180 | 1.0 | 3.0 | 0.00 | 0.91 | 0.40 | 100 | 1015.5 |
| 20260903120520 | 69 | 180 | 2.0 | 5.0 | 0.00 | 0.91 | 0.40 | 100 | 1015.5 |
| 20260903115520 | 68 | 0.0 | 0.0 | 0.00 | 0.91 | 0.40 | 100 | 1015.4 | |
| 20260903114730 | 68 | 180 | 2.0 | 5.0 | 0.00 | 0.91 | 0.40 | 100 | 1015.1 |
| 20260903113731 | 68 | 225 | 1.0 | 3.0 | 0.01 | 0.91 | 0.40 | 100 | 1015.0 |
| 20260903112520 | 67 | 203 | 1.0 | 3.0 | 0.03 | 0.91 | 0.40 | 100 | 1015.0 |
| 20260903111520 | 67 | 203 | 2.0 | 6.0 | 0.04 | 0.91 | 0.40 | 100 | 1015.3 |
| 20260903110520 | 67 | 203 | 4.0 | 10.0 | 0.06 | 0.91 | 0.40 | 100 | 1015.3 |
| 20260903105520 | 67 | 113 | 1.0 | 5.0 | 0.07 | 0.91 | 0.40 | 100 | 1015.2 |
| 20260903104730 | 67 | 0.0 | 2.0 | 0.09 | 0.91 | 0.40 | 100 | 1015.5 | |
| 20260903103731 | 67 | 113 | 1.0 | 4.0 | 0.11 | 0.90 | 0.39 | 100 | 1015.3 |
| 20260903102520 | 67 | 0.0 | 2.0 | 0.11 | 0.88 | 0.37 | 100 | 1016.0 | |
| 20260903101520 | 67 | 113 | 1.0 | 4.0 | 0.12 | 0.87 | 0.36 | 100 | 1016.1 |
| 20260903100520 | 67 | 113 | 5.0 | 9.0 | 0.12 | 0.85 | 0.34 | 100 | 1015.5 |
| 20260903095520 | 67 | 180 | 2.0 | 4.0 | 0.11 | 0.84 | 0.33 | 100 | 1016.8 |
| 20260903094520 | 67 | 180 | 1.0 | 3.0 | 0.18 | 0.82 | 0.31 | 100 | 1017.4 |
| 20260903093732 | 67 | 0.0 | 1.0 | 0.15 | 0.79 | 0.28 | 100 | 1017.7 | |
| 20260903092733 | 67 | 0.0 | 2.0 | 0.13 | 0.77 | 0.26 | 100 | 1017.5 | |
| 20260903091520 | 67 | 0.0 | 2.0 | 0.11 | 0.75 | 0.24 | 100 | 1017.1 | |
| 20260903090730 | 67 | 0.0 | 2.0 | 0.09 | 0.73 | 0.22 | 100 | 1016.7 | |
| 20260903085731 | 67 | 180 | 1.0 | 3.0 | 0.09 | 0.73 | 0.22 | 100 | 1016.4 |
| 20260903084625 | 67 | 158 | 1.0 | 5.0 | 0.01 | 0.64 | 0.13 | 100 | 1017.5 |
| 20260903082520 | 67 | 0.0 | 2.0 | 0.01 | 0.64 | 0.13 | 100 | 1017.0 | |
| 20260903081520 | 67 | 158 | 1.0 | 3.0 | 0.10 | 0.64 | 0.13 | 100 | 1016.4 |
| 20260903080518 | 67 | 158 | 1.0 | 2.0 | 0.12 | 0.64 | 0.13 | 100 | 1016.4 |
| 20260903075520 | 67 | 0.0 | 1.0 | 0.12 | 0.64 | 0.13 | 100 | 1016.5 | |
| 20260903074520 | 67 | 158 | 1.0 | 3.0 | 0.12 | 0.63 | 0.12 | 100 | 1016.1 |
| 20260903073518 | 67 | 158 | 1.0 | 4.0 | 0.12 | 0.63 | 0.12 | 100 | 1016.7 |
| 20260903072521 | 67 | 158 | 1.0 | 4.0 | 0.12 | 0.63 | 0.12 | 100 | 1016.1 |
| 20260903071520 | 67 | 293 | 4.0 | 8.0 | 0.03 | 0.54 | 0.03 | 100 | 1017.1 |
| 20260903070520 | 68 | 113 | 3.0 | 7.0 | 0.01 | 0.52 | 0.01 | 100 | 1015.8 |
| 20260903065518 | 68 | 113 | 3.0 | 7.0 | 0.01 | 0.52 | 0.01 | 100 | 1015.9 |
| 20260903064520 | 67 | 68 | 3.0 | 10.0 | 0.00 | 0.51 | 0.00 | 100 | 1016.4 |
| 20260903063520 | 67 | 90 | 1.0 | 3.0 | 0.00 | 0.51 | 0.00 | 100 | 1016.0 |
| 20260903062518 | 67 | 0.0 | 1.0 | 0.00 | 0.51 | 0.00 | 100 | 1015.4 | |
| 20260903061521 | 67 | 90 | 2.0 | 3.0 | 0.00 | 0.52 | 0.00 | 100 | 1014.9 |
| 20260903060520 | 68 | 90 | 1.0 | 6.0 | 0.00 | 0.52 | 0.00 | 100 | 1015.2 |
| 20260903055518 | 68 | 90 | 2.0 | 6.0 | 0.00 | 0.52 | 0.00 | 100 | 1015.2 |
| 20260903054519 | 68 | 90 | 4.0 | 8.0 | 0.00 | 0.52 | 0.00 | 100 | 1015.5 |
| 20260903053735 | 68 | 90 | 3.0 | 8.0 | 0.00 | 0.52 | 0.00 | 100 | 1015.6 |
| 20260903052520 | 69 | 90 | 1.0 | 5.0 | 0.00 | 0.52 | 0.00 | 100 | 1015.4 |
| 20260903051518 | 69 | 90 | 2.0 | 5.0 | 0.00 | 0.52 | 0.00 | 100 | 1015.6 |
| 20260903050519 | 69 | 90 | 2.0 | 5.0 | 0.00 | 0.52 | 0.00 | 100 | 1015.7 |
| 20260903045518 | 69 | 90 | 3.0 | 7.0 | 0.00 | 0.52 | 0.00 | 100 | 1015.9 |
| 20260903044520 | 70 | 90 | 4.0 | 10.0 | 0.00 | 0.52 | 0.00 | 100 | 1016.4 |
| 20260903043520 | 70 | 90 | 4.0 | 8.0 | 0.00 | 0.52 | 0.00 | 100 | 1016.4 |
| 20260903042518 | 70 | 90 | 2.0 | 5.0 | 0.00 | 0.52 | 0.00 | 100 | 1016.7 |
| 20260903041518 | 70 | 68 | 2.0 | 5.0 | 0.00 | 0.52 | 0.00 | 100 | 1017.0 |
| 20260903040520 | 70 | 135 | 1.0 | 3.0 | 0.00 | 0.52 | 0.00 | 100 | 1016.7 |
| 20260903035520 | 70 | 0.0 | 2.0 | 0.00 | 0.52 | 0.52 | 100 | 1016.1 | |
| 20260903034519 | 70 | 135 | 1.0 | 4.0 | 0.00 | 0.52 | 0.52 | 100 | 1015.9 |
| 20260903033520 | 70 | 135 | 4.0 | 10.0 | 0.00 | 0.52 | 0.52 | 100 | 1015.8 |
| 20260903032520 | 71 | 135 | 4.0 | 7.0 | 0.00 | 0.52 | 0.52 | 100 | 1016.0 |
| 20260903031733 | 71 | 135 | 2.0 | 5.0 | 0.00 | 0.53 | 0.52 | 100 | 1016.0 |
| 20260903030728 | 71 | 135 | 4.0 | 8.0 | 0.00 | 0.59 | 0.52 | 100 | 1015.9 |
| 20260903025520 | 71 | 90 | 4.0 | 6.0 | 0.00 | 0.85 | 0.52 | 100 | 1016.1 |
| 20260903024520 | 71 | 90 | 2.0 | 7.0 | 0.00 | 1.15 | 0.52 | 100 | 1016.3 |
| 20260903023520 | 71 | 90 | 4.0 | 8.0 | 0.00 | 1.67 | 0.52 | 100 | 1016.0 |
| 20260903022520 | 71 | 90 | 3.0 | 7.0 | 0.00 | 1.75 | 0.52 | 100 | 1016.0 |
| 20260903021946 | 71 | 90 | 4.0 | 9.0 | 0.00 | 1.75 | 0.52 | 100 | 1015.6 |
| 20260903020520 | 71 | 90 | 4.0 | 7.0 | 0.00 | 1.77 | 0.52 | 100 | 1015.3 |
| 20260903015518 | 71 | 90 | 2.0 | 6.0 | 0.00 | 1.77 | 0.52 | 100 | 1015.4 |
| 20260903014520 | 71 | 90 | 3.0 | 8.0 | 0.00 | 1.78 | 0.52 | 100 | 1015.7 |
| 20260903013520 | 71 | 90 | 4.0 | 7.0 | 0.00 | 1.79 | 0.52 | 100 | 1015.5 |
| 20260903012520 | 71 | 90 | 6.0 | 11.0 | 0.00 | 1.79 | 0.52 | 100 | 1015.5 |
| 20260903011520 | 71 | 90 | 4.0 | 7.0 | 0.00 | 1.79 | 0.52 | 100 | 1015.5 |
| 20260903010520 | 71 | 90 | 5.0 | 8.0 | 0.00 | 1.79 | 0.52 | 100 | 1015.7 |
| 20260903005520 | 71 | 90 | 3.0 | 7.0 | 0.00 | 1.79 | 0.52 | 100 | 1015.7 |
| 20260903004520 | 71 | 90 | 3.0 | 7.0 | 0.00 | 1.79 | 0.52 | 100 | 1015.8 |
| 20260903003520 | 71 | 90 | 2.0 | 5.0 | 0.00 | 1.79 | 0.52 | 100 | 1015.8 |
| 20260903002520 | 71 | 90 | 1.0 | 3.0 | 0.00 | 1.79 | 0.52 | 100 | 1015.4 |
| 20260903001520 | 72 | 90 | 3.0 | 8.0 | 0.00 | 1.79 | 0.52 | 100 | 1015.5 |
| 20260903000519 | 72 | 90 | 2.0 | 6.0 | 0.00 | 1.79 | 0.52 | 100 | 1015.8 |
| 20260902235731 | 72 | 90 | 2.0 | 7.0 | 0.00 | 1.79 | 0.52 | 100 | 1015.8 |
| 20260902234520 | 73 | 90 | 4.0 | 8.0 | 0.00 | 1.79 | 0.52 | 100 | 1015.7 |
| 20260902233521 | 73 | 90 | 4.0 | 8.0 | 0.00 | 1.79 | 0.52 | 100 | 1015.7 |
| 20260902232520 | 73 | 135 | 4.0 | 8.0 | 0.00 | 1.79 | 0.52 | 100 | 1015.5 |
| 20260902231730 | 74 | 135 | 4.0 | 7.0 | 0.00 | 1.79 | 0.52 | 100 | 1015.5 |
| 20260902230520 | 74 | 135 | 3.0 | 4.0 | 0.00 | 1.79 | 0.52 | 100 | 1015.6 |
| 20260902225520 | 75 | 135 | 2.0 | 4.0 | 0.00 | 1.79 | 0.52 | 100 | 1015.6 |
| 20260902224520 | 75 | 135 | 2.0 | 3.0 | 0.00 | 1.79 | 0.52 | 100 | 1015.6 |
| 20260902223520 | 75 | 135 | 1.0 | 4.0 | 0.00 | 1.79 | 0.52 | 100 | 1015.7 |
| 20260902222520 | 76 | 135 | 2.0 | 4.0 | 0.00 | 1.79 | 0.52 | 100 | 1015.8 |
| 20260902221520 | 76 | 135 | 2.0 | 5.0 | 0.00 | 1.79 | 0.52 | 100 | 1015.6 |
| 20260902220520 | 76 | 158 | 2.0 | 4.0 | 0.00 | 1.79 | 0.52 | 100 | 1015.7 |
| 20260902215520 | 76 | 158 | 2.0 | 4.0 | 0.00 | 1.79 | 0.52 | 100 | 1015.7 |
| 20260902214520 | 76 | 158 | 2.0 | 6.0 | 0.00 | 1.79 | 0.52 | 100 | 1015.8 |
| 20260902213734 | 76 | 158 | 3.0 | 5.0 | 0.00 | 1.79 | 0.52 | 100 | 1015.9 |
| 20260902212944 | 76 | 158 | 2.0 | 6.0 | 0.00 | 1.79 | 0.52 | 100 | 1016.0 |
| 20260902211731 | 75 | 158 | 1.0 | 4.0 | 0.00 | 1.79 | 0.52 | 100 | 1016.1 |
| 20260902210521 | 75 | 158 | 2.0 | 4.0 | 0.00 | 1.79 | 0.52 | 100 | 1016.1 |
| 20260902205521 | 75 | 158 | 4.0 | 8.0 | 0.00 | 1.79 | 0.52 | 100 | 1016.1 |
| 20260902204734 | 75 | 158 | 2.0 | 5.0 | 0.00 | 1.79 | 0.52 | 100 | 1016.2 |
| 20260902203520 | 75 | 293 | 3.0 | 7.0 | 0.00 | 1.79 | 0.52 | 100 | 1016.2 |
| 20260902202520 | 75 | 293 | 3.0 | 5.0 | 0.00 | 1.79 | 0.52 | 100 | 1016.2 |
| 20260902201520 | 74 | 293 | 2.0 | 5.0 | 0.00 | 1.79 | 0.52 | 100 | 1016.0 |
| 20260902200733 | 73 | 293 | 3.0 | 6.0 | 0.00 | 1.79 | 0.52 | 100 | 1015.7 |
| 20260902195520 | 73 | 293 | 1.0 | 3.0 | 0.00 | 1.79 | 0.52 | 100 | 1016.0 |
| 20260902194943 | 73 | 293 | 4.0 | 8.0 | 0.00 | 1.79 | 0.52 | 100 | 1016.2 |
| 20260902193730 | 73 | 293 | 3.0 | 7.0 | 0.00 | 1.79 | 0.52 | 100 | 1016.5 |
| 20260902192518 | 73 | 293 | 3.0 | 5.0 | 0.00 | 1.79 | 0.52 | 100 | 1016.8 |
| 20260902191520 | 74 | 293 | 2.0 | 5.0 | 0.00 | 1.79 | 0.52 | 100 | 1016.8 |
| 20260902190733 | 73 | 293 | 1.0 | 5.0 | 0.00 | 1.79 | 0.52 | 100 | 1016.7 |
| 20260902185520 | 72 | 293 | 2.0 | 5.0 | 0.00 | 1.79 | 0.52 | 100 | 1016.5 |
| 20260902184520 | 71 | 293 | 1.0 | 5.0 | 0.00 | 1.79 | 0.52 | 100 | 1016.3 |
| 20260902183520 | 70 | 0.0 | 2.0 | 0.01 | 1.79 | 0.52 | 100 | 1016.3 | |
| 20260902182520 | 70 | 293 | 2.0 | 4.0 | 0.01 | 1.79 | 0.52 | 100 | 1015.8 |
| 20260902181520 | 69 | 293 | 2.0 | 5.0 | 0.01 | 1.79 | 0.52 | 100 | 1016.2 |
| 20260902180520 | 69 | 293 | 2.0 | 4.0 | 0.02 | 1.79 | 0.52 | 100 | 1016.6 |
| 20260902175730 | 69 | 293 | 1.0 | 3.0 | 0.02 | 1.79 | 0.52 | 100 | 1016.7 |
| 20260902174520 | 69 | 0.0 | 2.0 | 0.03 | 1.79 | 0.52 | 100 | 1017.2 | |
| 20260902173519 | 68 | 0.0 | 2.0 | 0.04 | 1.78 | 0.51 | 100 | 1017.3 | |
| 20260902172733 | 68 | 0.0 | 2.0 | 0.06 | 1.78 | 0.51 | 100 | 1017.2 | |
| 20260902171520 | 68 | 0.0 | 1.0 | 0.08 | 1.78 | 0.51 | 100 | 1017.3 | |
| 20260902170730 | 69 | 0.0 | 2.0 | 0.08 | 1.77 | 0.50 | 100 | 1017.4 | |
| 20260902165520 | 69 | 0.0 | 1.0 | 0.10 | 1.77 | 0.50 | 100 | 1017.9 | |
| 20260902164520 | 69 | 0.0 | 2.0 | 0.12 | 1.76 | 0.49 | 100 | 1017.8 | |
| 20260902163733 | 69 | 293 | 1.0 | 2.0 | 0.11 | 1.74 | 0.47 | 100 | 1018.0 |
| 20260902162518 | 70 | 0.0 | 1.0 | 0.27 | 1.72 | 0.45 | 100 | 1018.5 | |
| 20260902161520 | 70 | 0.0 | 0.0 | 0.41 | 1.70 | 0.43 | 100 | 1018.8 | |
| 20260902160519 | 70 | 0.0 | 2.0 | 0.41 | 1.69 | 0.42 | 100 | 1018.8 | |
| 20260902155518 | 70 | 293 | 1.0 | 3.0 | 0.39 | 1.67 | 0.40 | 100 | 1018.9 |
| 20260902154518 | 69 | 293 | 3.0 | 8.0 | 0.36 | 1.64 | 0.37 | 100 | 1018.9 |
| 20260902153520 | 70 | 135 | 4.0 | 10.0 | 0.35 | 1.63 | 0.36 | 100 | 1019.1 |
| 20260902152942 | 70 | 315 | 7.0 | 14.0 | 0.17 | 1.45 | 0.18 | 100 | 1020.2 |
| 20260902151518 | 71 | 0.0 | 5.0 | 0.01 | 1.29 | 0.02 | 100 | 1018.0 | |
| 20260902150520 | 71 | 90 | 2.0 | 7.0 | 0.00 | 1.28 | 0.01 | 100 | 1017.7 |
| 20260902145519 | 71 | 90 | 2.0 | 7.0 | 0.00 | 1.28 | 0.01 | 100 | 1017.2 |
| 20260902144519 | 71 | 90 | 5.0 | 8.0 | 0.00 | 1.28 | 0.01 | 100 | 1017.0 |
| 20260902143520 | 71 | 135 | 3.0 | 10.0 | 0.00 | 1.28 | 0.01 | 100 | 1017.1 |
| 20260902142519 | 71 | 90 | 4.0 | 7.0 | 0.00 | 1.28 | 0.01 | 100 | 1017.3 |
| 20260902141519 | 71 | 90 | 3.0 | 7.0 | 0.00 | 1.28 | 0.01 | 100 | 1017.4 |
| 20260902140731 | 71 | 90 | 4.0 | 8.0 | 0.00 | 1.33 | 0.01 | 100 | 1017.4 |